STARLINK-35831

Last updated on Sun Dec 07 2025 00:02:05 GMT+0000 (Coordinated Universal Time)

1 66374U 25254AC 25339.63257646 .00402992 00000+0 26107-2 0 9998 2 66374 53.1572 310.1414 0004182 66.4364 293.7095 15.74325730 4566
UTC large
Height (km)
Speed (km/s)
/
Latitude / Longitude
Inclination (degrees)
Orbital Period (minutes)
Azimuth
Elevation
Range (km)
Doppler Factor

Next 0 passes for location: London (51.5072 / 0.1276)

Sorry there are no passes over London.